Flag Weather past 2 weeks in Florianópolis, Santa Catarina, Brazil

Now
72 °F

Passing clouds.


Feels Like: 69 °F
Forecast: 70 / 79 °F
Wind: 3 mph from East

Location: Florianopolis Aeroporto

Current Time: Oct 31, 2014 at 3:42:06 AM

Latest Report: Oct 31, 2014 at 3:00 AM


Visibility: N/A

Pressure: 29.86 "Hg

Humidity: 88%

Dew point: 68 °F

Location of FlorianópolisLocation

Historic Weather in Florianópolis — Graph

°F

Florianópolis temperature yesterday

Maximum temperature yesterday: 82 °F (at 3:00 PM)
Minimum temperature yesterday: 72 °F (at 4:00 AM)
Average temperature yesterday: 76 °F

Past Weeks' High & Low Weather Summary

 TemperatureHumidityPressure
High84 °F (Oct 28, 3:00 PM)94% (Oct 26, 2:00 AM)30.24 "Hg (Oct 26, 2:00 AM)
Low61 °F (Oct 21, 6:00 AM)29% (Oct 20, 11:00 AM)29.71 "Hg (Oct 19, 5:00 AM)
Average73 °F73%29.97 "Hg
* Reported Oct 16 1:00 AM — Oct 31 2:00 AM, Florianópolis, Weather by CustomWeather, © 2014

Note: Actual official high and low records may vary slightly from our data, if they occured in-between our weather recording intervals... More about our weather records

Advertising

Florianópolis weather history for previous 24 hours

 ConditionsComfort  
Time TempWeatherWind HumidityBarometerVisibility
2:00 AM
Oct 31
70 °FPassing clouds.1 mph94%29.83 "HgN/A
1:00 AM72 °FPassing clouds.No wind88%29.83 "HgN/A
12:00 AM72 °FPassing clouds.1 mph88%29.83 "HgN/A
11:00 PM
Oct 30
72 °FPassing clouds.9 mph88%29.83 "HgN/A
10:00 PM73 °FPassing clouds.5 mph83%29.86 "HgN/A
9:00 PM75 °FThunderstorms. Passing clouds.9 mph74%29.83 "HgN/A
8:00 PM75 °FPassing clouds.9 mph74%29.83 "HgN/A
7:00 PM75 °FScattered clouds.10 mph78%29.77 "HgN/A
6:00 PM77 °FPassing clouds.12 mph79%29.74 "HgN/A
5:00 PM79 °FPassing clouds.15 mph74%29.74 "HgN/A
4:00 PM82 °FPassing clouds.10 mph66%29.71 "HgN/A
3:00 PM82 °FPassing clouds.10 mph66%29.74 "HgN/A
2:00 PM81 °FSunny.12 mph70%29.74 "Hg10 mi
1:00 PM81 °FSunny.13 mph70%29.74 "Hg10 mi
12:00 PM81 °FSunny.10 mph66%29.77 "Hg10 mi
11:00 AM79 °FSunny.14 mph70%29.77 "Hg10 mi
10:00 AM81 °FSunny.22 mph66%29.77 "Hg10 mi
9:00 AM77 °FSunny.13 mph74%29.71 "Hg10 mi
8:00 AM73 °FSunny.13 mph83%29.74 "Hg10 mi
7:00 AM72 °FSunny.12 mph83%29.71 "Hg10 mi
6:00 AM72 °FPassing clouds.10 mph88%29.71 "HgN/A
5:00 AM72 °FPassing clouds.14 mph88%29.74 "HgN/A
4:00 AM72 °FPassing clouds.14 mph83%29.71 "HgN/A
3:00 AM73 °FPassing clouds.12 mph83%29.74 "HgN/A
Weather by CustomWeather, © 2014

See weather overviewHow to use our weather pages